Waarnemingen

Advertentie
Mijn weer
Elsenborn, België (6496): temperatuur & dauwpunt: 13.08.2019 16:00:00 - 19.08.2019 16:00:00 (CEST)Elsenborn, België (6496): windsnelheid & windstoten: 13.08.2019 16:00:00 - 19.08.2019 16:00:00 (CEST)Elsenborn, België (6496): windrichting: 13.08.2019 16:00:00 - 19.08.2019 16:00:00 (CEST)Elsenborn, België (6496): luchtdruk: 13.08.2019 16:00:00 - 19.08.2019 16:00:00 (CEST)Elsenborn, België (6496): zicht: 13.08.2019 16:00:00 - 19.08.2019 16:00:00 (CEST)
Datum & Tijd tt [°C] td [°C] ff [km/u] ff [kn] fx [km/u] fx [kn] dd ppp [hPa] vv [km]
19.08.2019 16:00:00 17,5 8,2 18 10 32 18 W 1017,8 19
19.08.2019 15:00:00 17,2 7,4 14 8 32 18 ZW 1017,7 20
19.08.2019 14:00:00 17,9 8,1 18 10 - - WZW 1017,1 19
19.08.2019 13:00:00 16,8 7,9 18 10 36 19 WZW 1016,8 20
19.08.2019 12:00:00 15,7 7,6 18 10 29 16 WZW 1016,8 20
19.08.2019 11:00:00 14,7 9,0 14 8 - - WZW 1016,8 20
19.08.2019 10:00:00 13,1 9,8 14 8 29 16 ZW 1016,8 19
19.08.2019 09:00:00 12,2 10,3 7 4 18 10 WZW 1016,7 20
19.08.2019 08:00:00 9,8 9,1 4 2 - - N 1016,8 20
19.08.2019 07:00:00 6,8 6,5 0 0 4 2 N 1017,2 10
19.08.2019 06:00:00 6,5 6,0 2 1 11 6 - 1016,7 0,8
19.08.2019 05:00:00 8,0 7,6 5 3 - - Z 1016,2 10
19.08.2019 04:00:00 8,4 8,2 2 1 7 4 - 1015,6 2,7
19.08.2019 03:00:00 8,8 8,4 4 2 7 4 N 1015,3 15
19.08.2019 02:00:00 10,1 9,7 4 2 - - N 1014,7 20
19.08.2019 01:00:00 10,8 9,7 4 2 11 6 N 1014,1 20
19.08.2019 00:00:00 12,0 10,3 4 2 22 12 N 1013,1 20
18.08.2019 23:00:00 13,5 12,4 7 4 - - W 1012,5 20
18.08.2019 22:00:00 13,0 12,3 7 4 11 6 ZW 1011,7 20
18.08.2019 21:00:00 13,6 12,6 4 2 14 8 N 1011,0 20
18.08.2019 20:00:00 15,0 13,6 7 4 - - ZZW 1010,1 20
18.08.2019 19:00:00 15,1 13,2 15 8 25 14 W 1010,0 10
18.08.2019 18:00:00 15,1 14,0 14 8 47 25 W 1009,3 19
18.08.2019 17:00:00 17,2 15,9 25 14 - - W 1007,8 20
18.08.2019 16:00:00 16,9 16,0 18 10 36 19 WZW 1007,0 6
18.08.2019 15:00:00 18,3 16,6 14 8 43 23 ZW 1006,1 20
18.08.2019 14:00:00 18,1 16,5 22 12 - - ZW 1006,2 20
18.08.2019 13:00:00 18,1 16,4 25 14 43 23 ZW 1005,1 20
18.08.2019 12:00:00 17,5 16,2 22 12 40 21 ZW 1004,6 20
18.08.2019 11:00:00 17,0 16,1 18 10 - - ZZW 1004,2 20
18.08.2019 10:00:00 16,0 15,6 14 8 36 19 ZZW 1004,5 3,5
18.08.2019 09:00:00 14,6 14,4 14 8 29 16 Z 1005,5 4,0
18.08.2019 08:00:00 13,5 13,2 11 6 - - Z 1006,3 8
18.08.2019 07:00:00 12,6 12,2 7 4 11 6 ZZW 1007,3 20
18.08.2019 06:00:00 12,3 12,2 4 2 14 8 N 1007,7 20
18.08.2019 05:00:00 12,1 12,1 7 4 - - ZW 1008,6 18
18.08.2019 04:00:00 13,0 12,9 7 4 29 16 WNW 1008,7 4,8
18.08.2019 03:00:00 15,3 15,1 11 6 25 14 ZZW 1007,7 8
18.08.2019 02:00:00 15,3 15,1 11 6 - - ZZW 1008,3 13
18.08.2019 01:00:00 15,3 15,1 11 6 18 10 Z 1008,7 13
18.08.2019 00:00:00 15,3 15,1 7 4 25 14 ZZW 1009,2 8
17.08.2019 23:00:00 15,3 15,0 11 6 - - ZW 1009,6 4,6
17.08.2019 22:00:00 15,3 14,9 14 8 25 14 ZZW 1009,5 20
17.08.2019 21:00:00 15,3 14,8 11 6 25 14 ZZW 1009,5 20
17.08.2019 20:00:00 15,6 14,9 11 6 - - ZZW 1009,6 19
17.08.2019 19:00:00 15,7 14,7 14 8 36 19 ZW 1010,2 20
17.08.2019 18:00:00 16,0 14,8 14 8 36 19 ZZW 1009,5 12
17.08.2019 17:00:00 16,2 14,3 14 8 - - ZZW 1009,6 20
17.08.2019 16:00:00 15,6 14,2 14 8 36 19 ZZW 1009,8 20
17.08.2019 15:00:00 15,5 14,3 11 6 29 16 ZZW 1010,2 20
17.08.2019 14:00:00 15,3 14,2 14 8 - - ZW 1010,5 20
17.08.2019 13:00:00 14,5 13,9 11 6 25 14 ZZW 1010,7 11
17.08.2019 12:00:00 14,3 13,3 11 6 29 16 ZZW 1010,7 2,8
17.08.2019 11:00:00 14,6 12,2 11 6 - - ZZW 1010,5 20
17.08.2019 10:00:00 - - - - - - - - -
17.08.2019 09:00:00 14,8 10,5 15 8 36 19 ZZW 1010,2 10
17.08.2019 08:00:00 15,1 11,3 11 6 - - ZZW 1010,0 20
17.08.2019 07:00:00 14,5 11,0 7 4 22 12 ZZW 1010,0 20
17.08.2019 06:00:00 14,6 10,8 7 4 22 12 ZZW 1009,7 20
17.08.2019 05:00:00 14,6 10,5 11 6 - - Z 1010,2 20
17.08.2019 04:00:00 15,0 10,2 7 4 25 14 Z 1010,7 20
17.08.2019 03:00:00 15,3 10,1 14 8 25 14 Z 1011,1 20
17.08.2019 02:00:00 15,0 10,5 7 4 - - Z 1011,7 20
17.08.2019 01:00:00 15,0 10,5 7 4 18 10 Z 1012,3 20
17.08.2019 00:00:00 15,0 10,4 7 4 18 10 Z 1012,8 20
16.08.2019 23:00:00 15,0 10,5 11 6 - - Z 1013,7 20
16.08.2019 22:00:00 14,8 10,8 7 4 11 6 Z 1013,8 20
16.08.2019 21:00:00 15,1 10,7 4 2 14 8 N 1013,8 20
16.08.2019 20:00:00 16,2 10,9 4 2 - - N 1014,2 20
16.08.2019 19:00:00 16,7 10,5 7 4 25 14 ZZW 1014,1 20
16.08.2019 18:00:00 18,1 9,9 11 6 29 16 ZW 1014,5 20
16.08.2019 17:00:00 18,5 10,4 11 6 - - WZW 1015,1 20
16.08.2019 16:00:00 17,2 9,9 14 8 22 12 WZW 1016,0 20
16.08.2019 15:00:00 17,2 10,6 11 6 22 12 ZW 1016,3 20
16.08.2019 14:00:00 17,3 11,2 11 6 - - ZW 1016,8 20
16.08.2019 13:00:00 15,3 10,8 14 8 25 14 ZW 1017,7 16
16.08.2019 12:00:00 14,7 11,4 11 6 22 12 ZW 1018,2 20
16.08.2019 11:00:00 13,3 11,1 7 4 - - ZZW 1018,7 18
16.08.2019 10:00:00 12,0 10,6 11 6 22 12 ZZW 1019,0 18
16.08.2019 09:00:00 12,1 11,1 11 6 14 8 ZW 1019,2 15
16.08.2019 08:00:00 11,3 11,0 7 4 - - WZW 1019,2 10
16.08.2019 07:00:00 11,3 11,2 7 4 18 10 ZW 1019,0 3,5
16.08.2019 06:00:00 11,3 11,2 7 4 14 8 WZW 1018,8 6
16.08.2019 05:00:00 11,4 11,2 7 4 - - WZW 1018,8 2,9
16.08.2019 04:00:00 11,6 11,4 7 4 14 8 WZW 1018,7 4,3
16.08.2019 03:00:00 11,6 11,2 7 4 18 10 W 1018,7 7
16.08.2019 02:00:00 12,5 11,9 7 4 - - W 1018,3 10
16.08.2019 01:00:00 12,6 12,2 7 4 14 8 WZW 1018,2 13
16.08.2019 00:00:00 12,5 12,1 4 2 11 6 N 1018,2 12
15.08.2019 23:00:00 12,5 11,7 4 2 - - N 1017,7 18
15.08.2019 22:00:00 12,3 11,6 7 4 14 8 W 1017,2 17
15.08.2019 21:00:00 12,6 11,4 11 6 29 16 W 1016,3 20
15.08.2019 20:00:00 12,7 11,7 14 8 - - WNW 1015,6 16
15.08.2019 19:00:00 14,5 13,8 11 6 29 16 WZW 1014,1 10
15.08.2019 18:00:00 14,1 13,2 15 8 32 18 WZW 1013,8 3,3
15.08.2019 17:00:00 14,1 13,3 11 6 - - WZW 1013,7 20
15.08.2019 16:00:00 15,1 13,9 14 8 32 18 WZW 1012,7 19
15.08.2019 15:00:00 14,8 14,5 18 10 32 18 W 1012,3 10
15.08.2019 14:00:00 16,2 13,8 18 10 - - WZW 1011,5 20
15.08.2019 13:00:00 15,3 13,6 14 8 32 18 W 1011,6 20
15.08.2019 12:00:00 14,3 13,3 14 8 36 19 WZW 1011,5 3,2
15.08.2019 11:00:00 14,8 12,7 22 12 - - WZW 1011,2 20
15.08.2019 10:00:00 14,1 13,0 18 10 29 16 WZW 1011,2 20
15.08.2019 09:00:00 13,5 13,1 14 8 25 14 WZW 1011,2 20
15.08.2019 08:00:00 13,1 12,9 11 6 - - WZW 1011,2 11
15.08.2019 07:00:00 12,8 12,7 11 6 22 12 ZW 1011,2 3,7
15.08.2019 06:00:00 12,6 12,3 11 6 22 12 ZZW 1011,2 4,5
15.08.2019 05:00:00 12,8 12,0 7 4 - - ZZW 1011,5 5
15.08.2019 04:00:00 13,0 11,8 7 4 22 12 ZZW 1012,0 20
15.08.2019 03:00:00 13,0 11,8 11 6 25 14 Z 1012,6 20
15.08.2019 02:00:00 13,1 11,8 11 6 - - Z 1013,2 20
15.08.2019 01:00:00 12,8 11,7 7 4 22 12 ZW 1014,1 12
15.08.2019 00:00:00 13,9 10,9 11 6 22 12 Z 1013,7 20
14.08.2019 23:00:00 14,9 10,2 11 6 - - Z 1014,1 8
14.08.2019 22:00:00 15,5 9,6 8 4 18 10 Z 1014,5 10
14.08.2019 21:00:00 15,3 9,8 7 4 14 8 Z 1014,7 20
14.08.2019 20:00:00 16,2 10,0 4 2 - - N 1015,0 20
14.08.2019 19:00:00 16,7 9,4 7 4 22 12 ZW 1015,3 20
14.08.2019 18:00:00 17,6 9,2 11 6 22 12 ZW 1015,7 20
14.08.2019 17:00:00 17,8 8,8 11 6 - - ZW 1016,3 20
14.08.2019 16:00:00 16,8 8,4 11 6 29 16 ZZW 1017,1 20
14.08.2019 15:00:00 16,4 7,9 11 6 22 12 ZZW 1017,5 20
14.08.2019 14:00:00 16,9 7,3 14 8 - - ZW 1017,8 20
14.08.2019 13:00:00 15,8 8,3 15 8 25 14 ZZW 1018,3 10
14.08.2019 12:00:00 15,3 9,4 11 6 25 14 WZW 1018,8 20
14.08.2019 11:00:00 13,7 9,4 7 4 - - ZZW 1019,5 20
14.08.2019 10:00:00 11,6 9,0 11 6 18 10 WZW 1020,0 20
14.08.2019 09:00:00 - - - - - - - - -
14.08.2019 08:00:00 9,8 9,2 7 4 - - ZW 1020,2 8
14.08.2019 07:00:00 9,6 9,2 7 4 11 6 WZW 1020,1 6
14.08.2019 06:00:00 9,3 8,9 4 2 11 6 N 1020,1 6
14.08.2019 05:00:00 9,8 9,5 7 4 - - WZW 1020,1 7
14.08.2019 04:00:00 9,8 9,6 7 4 11 6 W 1020,2 8
14.08.2019 03:00:00 9,1 8,7 4 2 11 6 N 1020,3 11
14.08.2019 02:00:00 8,6 8,2 4 2 - - N 1020,5 11
14.08.2019 01:00:00 9,2 8,8 4 2 11 6 N 1020,3 17
14.08.2019 00:00:00 8,5 8,0 4 2 7 4 N 1020,7 6
13.08.2019 23:00:00 9,5 8,7 4 2 - - N 1020,3 20
13.08.2019 22:00:00 10,3 9,5 7 4 14 8 WZW 1020,1 20
13.08.2019 21:00:00 10,5 9,2 7 4 14 8 ZW 1019,7 20
13.08.2019 20:00:00 10,6 9,1 7 4 - - ZW 1019,5 20
13.08.2019 19:00:00 11,0 9,9 7 4 25 14 WZW 1019,5 20
13.08.2019 18:00:00 11,0 9,8 14 8 32 18 W 1020,0 18
13.08.2019 17:00:00 12,5 8,4 18 10 - - WNW 1019,2 20
13.08.2019 16:00:00 16,3 5,4 11 6 25 14 WZW 1018,0 20

tt = temperatuur
td = dauwpunt
ff = windsnelheid
fx = windstoten
dd = windrichting
ppp = luchtdruk
vv = zicht

Weerstations in de omgeving